EW7645 Weather Reports


time (UTC)temp
F
wind
direction
speed
knots
gust
knots
rain 1hr
in
rain 24hr
in
rain mn
in
humidity
%
barometer
mb
20260505102017 43 315 5.2 11.3 0.00 0.13 0.00 90 1011.5
20260505101016 43 0 5.2 10.4 0.00 0.13 0.00 89 1011.8
20260505100016 43 0 6.1 13.9 0.00 0.13 0.00 89 1012.0
20260505095057 44 315 5.2 11.3 0.00 0.13 0.00 88 1012.1
20260505094016 45 315 4.3 10.4 0.00 0.13 0.00 88 1012.3
20260505093017 45 315 5.2 11.3 0.00 0.13 0.00 88 1012.5
20260505092016 47 315 6.1 12.2 0.00 0.13 0.00 90 1012.9
20260505091016 47 315 2.6 6.1 0.00 0.13 0.00 92 1012.6
20260505090016 47 315 1.7 4.3 0.00 0.13 0.00 92 1012.6
20260505085017 47 315 1.7 3.5 0.00 0.13 0.00 92 1012.6
20260505084056 47 338 0.9 4.3 0.00 0.13 0.00 91 1012.7
20260505083016 47 315 0.9 1.7 0.00 0.13 0.00 91 1012.6
20260505082036 47 0.0 0.9 0.00 0.13 0.00 91 1012.6
20260505081017 47 0.0 0.9 0.00 0.13 0.00 91 1013.1
20260505080017 47 248 0.9 1.7 0.00 0.13 0.00 91 1013.2
20260505075017 47 0.0 0.9 0.00 0.13 0.00 91 1013.1
20260505074017 47 0.0 0.0 0.00 0.13 0.00 91 1012.2
20260505073016 47 0.0 0.0 0.00 0.13 0.00 91 1012.5
20260505072016 48 0.0 0.0 0.00 0.13 0.00 91 1012.5
20260505071017 47 0.0 0.0 0.00 0.13 0.00 90 1011.9
20260505070036 47 0.0 0.9 0.00 0.13 0.00 90 1011.9
20260505065017 47 0.0 0.0 0.00 0.13 0.00 90 1011.9
20260505064016 47 0.0 0.0 0.00 0.13 0.00 90 1012.3
20260505063016 47 0.0 0.9 0.00 0.13 0.00 89 1012.4
20260505062017 47 180 0.9 2.6 0.00 0.13 0.00 89 1012.4
20260505061017 47 0.0 0.9 0.00 0.13 0.00 89 1013.3
20260505060017 47 203 0.9 2.6 0.00 0.13 0.00 88 1013.4
20260505055017 47 225 0.9 1.7 0.00 0.13 0.13 88 1013.3
20260505054016 48 0.0 0.0 0.01 0.13 0.13 87 1013.8
20260505053016 48 0.0 0.9 0.01 0.13 0.13 87 1013.9
20260505052017 48 0.0 0.9 0.02 0.13 0.13 87 1013.9
20260505051056 48 0.0 0.0 0.03 0.13 0.13 87 1013.8
20260505041017 49 270 0.9 2.6 0.10 0.10 0.10 84 1012.4
20260505040017 50 293 0.9 3.5 0.09 0.09 0.09 83 1012.6
20260505035016 50 315 3.5 7.0 0.08 0.08 0.08 81 1012.4
20260505034017 51 315 3.5 9.6 0.06 0.06 0.06 79 1011.9
20260505033016 52 315 2.6 6.1 0.04 0.04 0.04 76 1012.0
20260505032016 53 315 2.6 7.0 0.02 0.02 0.02 73 1012.1
20260505031017 54 338 3.5 9.6 0.00 0.00 0.00 66 1011.0
20260505030037 54 315 1.7 2.6 0.00 0.00 0.00 61 1010.6
20260505025017 54 0.0 1.7 0.00 0.00 0.00 59 1010.1
20260505024057 54 0.0 0.0 0.00 0.00 0.00 59 1008.4
20260505023016 54 0.0 0.0 0.00 0.00 0.00 58 1008.2
20260505022017 55 0.0 0.0 0.00 0.00 0.00 58 1008.6
20260505021016 55 0.0 0.9 0.00 0.00 0.00 57 1007.8
20260505020017 55 0.0 0.0 0.00 0.00 0.00 56 1007.7
20260505015017 56 0.0 0.9 0.00 0.00 0.00 55 1008.2
20260505014016 56 0.0 0.9 0.00 0.00 0.00 55 1007.2
20260505013017 56 0.0 1.7 0.00 0.00 0.00 54 1007.2
20260505012017 57 315 0.9 2.6 0.00 0.00 0.00 54 1007.4
20260505011017 57 338 0.9 3.5 0.00 0.00 0.00 54 1007.3
20260505010057 57 315 2.6 5.2 0.00 0.00 0.00 54 1007.1
20260505005036 58 315 3.5 7.8 0.00 0.00 0.00 54 1007.4
20260505004016 59 293 5.2 9.6 0.00 0.00 0.00 49 1007.4
20260505003036 60 270 4.3 10.4 0.00 0.00 0.00 45 1007.6
20260505002016 60 270 4.3 13.0 0.00 0.00 0.00 41 1007.3
20260505001016 61 248 2.6 7.0 0.00 0.00 0.00 40 1007.0
20260505000017 61 23 2.6 7.8 0.00 0.00 0.00 40 1006.5
20260504235037 62 0 4.3 11.3 0.00 0.00 0.00 39 1006.0
20260504234017 62 315 4.3 12.2 0.00 0.00 0.00 37 1005.7
20260504233037 63 23 7.0 12.2 0.00 0.00 0.00 37 1006.1
20260504232016 63 338 6.1 12.2 0.00 0.00 0.00 35 1005.9
20260504231016 63 315 5.2 11.3 0.00 0.00 0.00 34 1005.8
20260504230016 64 338 6.1 14.8 0.00 0.00 0.00 34 1005.3
20260504225037 64 315 7.0 17.4 0.00 0.00 0.00 30 1005.1
20260504224016 65 0 8.7 18.2 0.00 0.00 0.00 30 1005.6
20260504223036 66 315 7.8 16.5 0.00 0.00 0.00 30 1006.0
20260504222016 68 338 4.3 10.4 0.00 0.00 0.00 28 1006.3
20260504221017 69 23 8.7 18.2 0.00 0.00 0.00 26 1006.5
20260504220017 71 23 2.6 6.1 0.00 0.00 0.00 22 1006.1
20260504215016 71 23 4.3 10.4 0.00 0.00 0.00 22 1006.3
20260504214016 72 0 4.3 11.3 0.00 0.00 0.00 21 1006.7
20260504213016 72 23 2.6 7.8 0.00 0.00 0.00 22 1006.7
20260504212017 73 23 3.5 10.4 0.00 0.00 0.00 22 1006.8
20260504211036 73 338 5.2 9.6 0.00 0.00 0.00 23 1007.3
20260504210017 73 315 6.1 10.4 0.00 0.00 0.00 23 1007.5
20260504205017 74 315 7.0 11.3 0.00 0.00 0.00 23 1008.0
20260504204016 75 315 7.8 15.6 0.00 0.00 0.00 22 1008.6
20260504203017 75 315 7.0 12.2 0.00 0.00 0.00 21 1008.6
20260504202016 75 45 4.3 13.0 0.00 0.00 0.00 22 1008.8
20260504201017 74 0 5.2 12.2 0.00 0.00 0.00 22 1009.1
20260504200016 76 315 7.8 16.5 0.00 0.00 0.00 22 1009.3
20260504195016 76 23 6.1 13.9 0.00 0.00 0.00 22 1009.6
20260504194037 75 0 8.7 16.5 0.00 0.00 0.00 22 1009.9
20260504193017 75 0 3.5 10.4 0.00 0.00 0.00 21 1009.9
20260504192017 72 23 2.6 7.0 0.00 0.00 0.00 24 1009.2
20260504191016 68 338 5.2 10.4 0.00 0.00 0.00 27 1009.0
20260504190016 65 315 5.2 10.4 0.00 0.00 0.00 29 1008.3
20260504185016 65 315 4.3 9.6 0.00 0.00 0.00 30 1008.4
20260504184018 66 293 6.1 16.5 0.00 0.00 0.00 28 1009.0
20260504183017 67 315 7.0 16.5 0.00 0.00 0.00 25 1009.2
20260504182017 68 270 2.6 7.0 0.00 0.00 0.00 21 1009.1
20260504181017 69 180 6.1 13.0 0.00 0.00 0.00 21 1009.6
20260504180017 71 203 4.3 10.4 0.00 0.00 0.00 20 1009.8
20260504175017 72 315 0.9 3.5 0.00 0.00 0.00 19 1009.9
20260504174036 73 0 3.5 7.0 0.00 0.00 0.00 19 1010.2
20260504173017 75 23 2.6 5.2 0.00 0.00 0.00 19 1010.7
20260504172016 76 315 3.5 6.1 0.00 0.00 0.00 18 1011.2
20260504171017 75 135 1.7 8.7 0.00 0.00 0.00 19 1011.1
20260504151016 60 180 1.7 3.5 0.00 0.00 0.00 34 1010.9
20260504141016 48 0.0 0.9 0.00 0.00 0.00 59 1009.9